Weather History for KHQM - February, 2014

Change the Weather History Date:

Tuesday, February 25, 2014

  Actual Average Record
Temperature  
Mean Temperature 48 °F 44 °F  
Max Temperature 53 °F 51 °F 67 °F (1992)
Min Temperature 42 °F 38 °F 24 °F (2011)
Degree Days  
Heating Degree Days 17 21  
Month to date heating degree days 612 535  
Cooling Degree Days 0 0  
Month to date cooling degree days 0 0  
Year to date cooling degree days 0 0  
Moisture  
Dew Point 39 °F    
Average Humidity 74    
Maximum Humidity 89    
Minimum Humidity 59    
Precipitation  
Precipitation 0.00 in 0.25 in 1.89 in (1957)
Month to date precipitation 8.02 6.49  
Year to date precipitation 14.52 16.82  
Sea Level Pressure  
Sea Level Pressure 30.00 in    
Wind  
Wind Speed 16 mph (ENE)    
Max Wind Speed 29 mph    
Max Gust Speed 35 mph    
Visibility 9 miles    
Events      
T = Trace of Precipitation, MM = Missing Value Source: NWS Daily Summary

Daily Weather History Graph

Daily Weather History Graph

Search for Another Location

Airport or City:

Trip Planner

Search our weather history database for the weather conditions in past years. The results will help you decide how hot, cold, wet, or windy it might be!

Date:

Astronomy

Feb. 25, 2014 Rise Set
Actual Time 7:02 AM PST 5:55 PM PST
Civil Twilight 6:31 AM PST 6:26 PM PST
Nautical Twilight 5:56 AM PST 7:01 PM PST
Astronomical Twilight 5:21 AM PST 7:36 PM PST
Moon 4:13 AM PST (2/25) 1:57 PM PST (2/25)
Length of Visible Light 11h 54m
Length of Day
10h 52m
Waning Crescent, 17% of the Moon is Illuminated
Feb 25
Waning Crescent
Mar 1
New
Mar 8
First Quarter
Mar 16
Full
Mar 23
Last Quarter

Hourly Weather History & Observations

Time (PST) Temp. Windchill Dew Point Humidity Pressure Visibility Wind Dir Wind Speed Gust Speed Precip Events Conditions
12:53 AM 42.1 °F 34.9 °F 39.9 °F 92% 30.06 in 10.0 mi NE 13.8 mph 21.9 mph N/A   Overcast
1:53 AM 42.1 °F 34.9 °F 39.9 °F 92% 30.06 in 10.0 mi ENE 13.8 mph - N/A   Overcast
2:14 AM 42.1 °F 34.2 °F 39.9 °F 92% 30.05 in 10.0 mi ENE 16.1 mph 23.0 mph N/A   Mostly Cloudy
2:53 AM 42.1 °F 35.2 °F 39.9 °F 92% 30.06 in 10.0 mi ENE 12.7 mph - N/A   Overcast
3:53 AM 42.1 °F 34.5 °F 39.9 °F 92% 30.04 in 10.0 mi ENE 15.0 mph - N/A   Mostly Cloudy
4:42 AM 42.1 °F 34.2 °F 39.9 °F 92% 30.03 in 10.0 mi ENE 16.1 mph - N/A   Scattered Clouds
4:53 AM 42.1 °F 34.9 °F 39.9 °F 92% 30.04 in 10.0 mi ENE 13.8 mph 23.0 mph N/A   Mostly Cloudy
5:53 AM 42.1 °F 34.2 °F 39.9 °F 92% 30.04 in 10.0 mi ENE 16.1 mph 25.3 mph N/A   Overcast
6:53 AM 42.1 °F 33.9 °F 39.0 °F 89% 30.03 in 10.0 mi ENE 17.3 mph - N/A   Mostly Cloudy
7:02 AM 42.1 °F 34.9 °F 39.0 °F 89% 30.02 in 10.0 mi NE 13.8 mph 23.0 mph N/A   Scattered Clouds
7:53 AM 42.1 °F 34.9 °F 39.0 °F 89% 30.03 in 9.0 mi ENE 13.8 mph - N/A   Clear
8:53 AM 44.1 °F 35.9 °F 39.0 °F 82% 30.04 in 9.0 mi ENE 19.6 mph - N/A   Partly Cloudy
9:53 AM 45.0 °F 36.6 °F 39.0 °F 80% 30.04 in 9.0 mi ENE 21.9 mph 31.1 mph N/A   Mostly Cloudy
10:53 AM 46.0 °F 37.8 °F 39.9 °F 79% 30.03 in 8.0 mi ENE 23.0 mph - N/A   Mostly Cloudy
11:53 AM 48.9 °F - 41.0 °F 74% 30.02 in 9.0 mi ENE 20.7 mph 27.6 mph N/A   Overcast
12:15 PM 50.0 °F - 39.0 °F 66% 30.00 in 1.8 mi NE 20.7 mph 34.5 mph N/A   Haze
12:35 PM 51.1 °F - 41.0 °F 68% 29.99 in 5.0 mi ENE 19.6 mph 26.5 mph N/A   Haze
12:53 PM 51.1 °F - 39.9 °F 66% 30.00 in 9.0 mi ENE 19.6 mph 29.9 mph N/A   Clear
1:53 PM 53.1 °F - 41.0 °F 64% 29.98 in 9.0 mi ENE 19.6 mph 28.8 mph N/A   Clear
2:53 PM 53.1 °F - 41.0 °F 64% 29.96 in 9.0 mi NE 16.1 mph 27.6 mph N/A   Clear
3:53 PM 53.1 °F - 39.9 °F 61% 29.96 in 9.0 mi ENE 16.1 mph 25.3 mph N/A   Clear
4:53 PM 51.1 °F - 39.0 °F 63% 29.95 in 9.0 mi ENE 15.0 mph 25.3 mph N/A   Clear
5:53 PM 50.0 °F - 37.9 °F 63% 29.94 in 9.0 mi NE 18.4 mph 27.6 mph N/A   Clear
6:53 PM 48.9 °F - 37.9 °F 66% 29.95 in 10.0 mi ENE 16.1 mph 25.3 mph N/A   Clear
7:53 PM 48.0 °F - 37.9 °F 68% 29.95 in 10.0 mi ENE 12.7 mph - N/A   Clear
8:53 PM 46.9 °F - 37.9 °F 71% 29.95 in 10.0 mi ENE 13.8 mph - N/A   Clear
9:53 PM 46.9 °F - 37.0 °F 68% 29.94 in 10.0 mi ENE 15.0 mph - N/A   Clear
10:53 PM 46.0 °F 40.2 °F 36.0 °F 68% 29.94 in 10.0 mi ENE 12.7 mph - N/A   Clear
11:53 PM 45.0 °F 38.9 °F 36.0 °F 71% 29.94 in 9.0 mi East 12.7 mph - N/A   Clear